Date String (YYYY-MM-DD hh:mm:ss) UTC,Instrument flags,Ambient pressure (hPa),Sample flow (lpm),Bypass flow (lpm),Sample temperature (°C),Ambient temperature (°C),ASC tube jacket temperature (°C),LED temperature (°C),Box temperature (°C),Sample RH (%),Span deviation,Mass concentration (μg/m³),Mass concentration (μg/m³),Mass concentration (μg/m³)
DateTimeUTC,F1_M11,P_M11,Q1_M11,Q2_M11,T1_M11,T2_M11,T3_M11,T4_M11,T5_M11,U1_M11,ZSPAN_M11,X0_M11,X2_M11,X1_M11
2022-03-20 01:00:00,,0823.2,5.00,0.00,27.3,26.5,00.0,36.2,29.1,09.1,0000.0,0012.92,0004.65,0003.17
2022-03-20 01:01:00,,0823.1,5.00,0.00,27.3,26.5,00.0,36.2,29.1,09.1,0000.0,0012.83,0004.70,0003.18
2022-03-20 01:02:00,,0823.1,4.99,0.00,27.3,26.5,00.0,36.2,29.1,09.3,0000.0,0012.65,0004.69,0003.18
2022-03-20 01:03:00,,0823.1,5.00,0.00,27.3,26.5,00.0,36.2,29.1,09.2,0000.0,0012.05,0004.71,0003.17
2022-03-20 01:04:00,,0823.1,5.00,0.00,27.3,26.5,00.0,36.2,29.1,09.0,0000.0,0011.91,0004.73,0003.18
2022-03-20 01:05:00,,0823.1,5.00,0.00,27.3,26.5,00.0,36.2,29.1,08.9,0000.0,0011.88,0004.75,0003.19
2022-03-20 01:06:00,,0823.1,5.00,0.00,27.3,26.5,00.0,36.2,29.1,09.0,0000.0,0011.02,0004.74,0003.19
2022-03-20 01:07:00,,0823.1,5.00,0.00,27.3,26.5,00.0,36.2,29.1,09.0,0000.0,0010.54,0004.75,0003.19
2022-03-20 01:08:00,,0823.1,5.00,0.00,27.3,26.5,00.0,36.2,29.1,09.0,0000.0,0010.61,0004.74,0003.18
2022-03-20 01:09:00,,0823.1,5.00,0.00,27.3,26.5,00.0,36.2,29.1,08.9,0000.0,0010.88,0004.77,0003.18
2022-03-20 01:10:00,,0823.0,5.00,0.00,27.3,26.5,00.0,36.2,29.1,08.9,0000.0,0010.73,0004.75,0003.18
2022-03-20 01:11:00,,0823.1,5.00,0.00,27.3,26.5,00.0,36.2,29.1,08.8,0000.0,0010.55,0004.71,0003.17
2022-03-20 01:12:00,,0823.1,5.00,0.00,27.3,26.5,00.0,36.2,29.1,08.7,0000.0,0011.01,0004.64,0003.16
2022-03-20 01:13:00,,0823.0,5.01,0.00,27.3,26.5,00.0,36.2,29.1,08.7,0000.0,0011.23,0004.63,0003.15
2022-03-20 01:14:00,,0823.0,5.00,0.00,27.3,26.5,00.0,36.2,29.1,08.7,0000.0,0011.26,0004.61,0003.15
2022-03-20 01:15:00,,0823.1,5.00,0.00,27.3,26.5,00.0,36.2,29.1,08.7,0000.0,0011.34,0004.62,0003.14
2022-03-20 01:16:00,,0823.1,5.00,0.00,27.3,26.5,00.0,36.2,29.1,08.7,0000.0,0011.41,0004.66,0003.14
2022-03-20 01:17:00,,0823.0,5.00,0.00,27.3,26.5,00.0,36.3,29.1,08.8,0000.0,0011.52,0004.70,0003.15
2022-03-20 01:18:00,,0823.1,4.99,0.00,27.3,26.5,00.0,36.3,29.1,08.9,0000.0,0011.39,0004.65,0003.15
2022-03-20 01:19:00,,0823.1,5.01,0.00,27.3,26.4,00.0,36.2,29.1,08.9,0000.0,0011.41,0004.67,0003.18
2022-03-20 01:20:00,,0823.1,5.00,0.00,27.3,26.4,00.0,36.2,29.1,09.0,0000.0,0011.21,0004.69,0003.20
2022-03-20 01:21:00,,0823.1,5.00,0.00,27.3,26.4,00.0,36.2,29.0,09.0,0000.0,0010.94,0004.73,0003.23
2022-03-20 01:22:00,,0823.1,4.99,0.00,27.3,26.4,00.0,36.3,29.0,09.1,0000.0,0010.91,0004.79,0003.26
2022-03-20 01:23:00,,0823.1,5.00,0.00,27.3,26.4,00.0,36.3,29.1,09.1,0000.0,0010.47,0004.84,0003.29
2022-03-20 01:24:00,,0823.1,4.99,0.00,27.3,26.4,00.0,36.3,29.1,09.1,0000.0,0010.46,0004.89,0003.34
2022-03-20 01:25:00,,0823.0,5.00,0.00,27.3,26.4,00.0,36.3,29.1,08.8,0000.0,0011.09,0004.97,0003.37
2022-03-20 01:26:00,,0823.1,5.00,0.00,27.3,26.4,00.0,36.2,29.1,08.8,0000.0,0011.21,0004.97,0003.42
2022-03-20 01:27:00,,0823.1,5.01,0.00,27.3,26.4,00.0,36.3,29.0,08.8,0000.0,0011.14,0004.94,0003.46
2022-03-20 01:28:00,,0823.0,5.00,0.00,27.3,26.4,00.0,36.3,29.1,08.8,0000.0,0011.24,0004.94,0003.50
2022-03-20 01:29:00,,0823.0,4.99,0.00,27.3,26.4,00.0,36.3,29.1,08.8,0000.0,0011.35,0004.98,0003.54
2022-03-20 01:30:00,,0823.0,5.00,0.00,27.3,26.4,00.0,36.3,29.0,08.8,0000.0,0011.40,0004.99,0003.55
2022-03-20 01:31:00,,0823.0,5.02,0.00,27.3,26.4,00.0,36.3,29.1,08.7,0000.0,0011.48,0005.02,0003.55
2022-03-20 01:32:00,,0823.0,5.00,0.00,27.3,26.4,00.0,36.3,29.1,08.7,0000.0,0011.57,0005.05,0003.58
2022-03-20 01:33:00,,0823.0,5.00,0.00,27.3,26.4,00.0,36.3,29.0,08.7,0000.0,0011.77,0005.10,0003.59
2022-03-20 01:34:00,,0823.0,5.00,0.00,27.3,26.4,00.0,36.3,29.1,08.7,0000.0,0012.05,0005.11,0003.60
2022-03-20 01:35:00,,0823.0,5.00,0.00,27.3,26.4,00.0,36.3,29.0,08.7,0000.0,0012.32,0005.10,0003.60
2022-03-20 01:36:00,,0823.0,5.00,0.00,27.3,26.4,00.0,36.3,29.0,08.7,0000.0,0011.94,0005.03,0003.59
2022-03-20 01:37:00,,0823.0,5.00,0.00,27.3,26.4,00.0,36.3,29.0,08.7,0000.0,0012.10,0005.00,0003.57
2022-03-20 01:38:00,,0823.0,4.99,0.00,27.3,26.4,00.0,36.3,29.0,08.8,0000.0,0012.61,0005.00,0003.55
2022-03-20 01:39:00,,0823.0,5.00,0.00,27.3,26.4,00.0,36.3,29.0,08.8,0000.0,0012.91,0005.04,0003.52
2022-03-20 01:40:00,,0823.0,5.01,0.00,27.3,26.4,00.0,36.3,29.0,08.8,0000.0,0012.94,0005.06,0003.48
2022-03-20 01:41:00,,0823.0,4.99,0.00,27.3,26.4,00.0,36.3,29.0,08.8,0000.0,0012.91,0005.08,0003.45
2022-03-20 01:42:00,,0823.0,4.99,0.00,27.3,26.4,00.0,36.3,29.0,08.8,0000.0,0012.75,0005.01,0003.43
2022-03-20 01:43:00,,0823.0,5.00,0.00,27.3,26.4,00.0,36.3,29.0,08.8,0000.0,0012.63,0004.93,0003.39
2022-03-20 01:44:00,,0822.9,4.99,0.00,27.3,26.4,00.0,36.3,29.0,08.8,0000.0,0012.52,0004.84,0003.36
2022-03-20 01:45:00,,0822.9,5.00,0.00,27.3,26.4,00.0,36.3,29.0,08.8,0000.0,0012.39,0004.80,0003.33
2022-03-20 01:46:00,,0822.9,5.00,0.00,27.3,26.4,00.0,36.3,29.0,08.8,0000.0,0012.65,0004.79,0003.30
2022-03-20 01:47:00,,0822.9,5.01,0.00,27.3,26.4,00.0,36.3,29.0,08.8,0000.0,0012.76,0004.76,0003.27
2022-03-20 01:48:00,,0822.9,5.00,0.00,27.3,26.4,00.0,36.3,29.0,08.8,0000.0,0012.41,0004.77,0003.25
2022-03-20 01:49:00,,0822.9,4.99,0.00,27.3,26.4,00.0,36.2,29.0,08.8,0000.0,0012.63,0004.80,0003.24
2022-03-20 01:50:00,,0822.9,5.00,0.00,27.3,26.4,00.0,36.2,29.0,08.7,0000.0,0013.52,0004.76,0003.22
2022-03-20 01:51:00,,0822.9,5.00,0.00,27.3,26.4,00.0,36.2,29.0,08.8,0000.0,0014.35,0004.78,0003.21
2022-03-20 01:52:00,,0822.9,5.00,0.00,27.3,26.4,00.0,36.2,29.0,08.9,0000.0,0014.49,0004.74,0003.21
2022-03-20 01:53:00,,0822.9,5.02,0.00,27.3,26.4,00.0,36.2,29.0,08.9,0000.0,0014.56,0004.73,0003.21
2022-03-20 01:54:00,,0823.0,5.00,0.00,27.3,26.4,00.0,36.2,29.0,08.9,0000.0,0014.70,0004.72,0003.20
2022-03-20 01:55:00,,0823.0,4.99,0.00,27.3,26.4,00.0,36.2,29.0,08.9,0000.0,0014.54,0004.70,0003.18
2022-03-20 01:56:00,,0823.0,5.01,0.00,27.3,26.4,00.0,36.2,29.0,08.8,0000.0,0015.08,0004.75,0003.18
2022-03-20 01:57:00,,0823.0,5.00,0.00,27.3,26.4,00.0,36.2,29.0,08.8,0000.0,0014.57,0004.78,0003.18
2022-03-20 01:58:00,,0823.0,4.99,0.00,27.3,26.4,00.0,36.2,29.0,08.8,0000.0,0014.38,0004.82,0003.18
2022-03-20 01:59:00,,0823.0,5.00,0.00,27.2,26.4,00.0,36.2,29.0,08.9,0000.0,0015.22,0004.85,0003.17
